Погода в Больших Горках

Россия / Тверская область     56°28′12″N   35°51′12″E
темп.,
°C
ветер,
м/с
пор.,
м/с
влажн.,
%
обл.,
%
осадки,
мм/ч
давл.,
гПа
погр.,
м
16 мая, вс
вс1600:00+11ююз25965 0.0 1008111
03:00+10ююз310976 0.0 1008254
06:00+12ююз3109293 0.0 1009412
09:00+17юз587233 0.0 1010794
12:00+19юз576467 0.3 10111437
15:00+19юз467372 2.6 10111310
18:00+19юз35685 0.4 10121027
21:00+14юз22920 0.8 101311
17 мая, пн
пн1700:00+12ююз12945 0.0 101412
03:00+11ююв1193100 0.0 101510
06:00+13вюв239274 0.0 101580
09:00+18вюв2472100 0.0 1015449
12:00+22юв4553100 0.0 10141258
15:00+25вюв574658 0.0 10121617
18:00+24вюв495799 0.0 10101111
21:00+18в31284100 0.1 1010314
18 мая, вт
вт1800:00+17вюв4118896 0.0 1009354
03:00+15вюв31194100 0.0 1008288
06:00+16вюв4118595 0.0 1008345
09:00+21юв51060100 0.0 1007637
12:00+25юв61248100 0.0 10061221
15:00+26юв6134576 0.0 10061991
18:00+24юв6125393 0.0 10051440
21:00+18юв3108683 0.9 1006227
19 мая, ср
ср1900:00+16юв399546 0.9 1005285
03:00+14юв39955 0.9 1006226
06:00+14ююв289369 0.0 1006267
09:00+18ююв3879100 0.0 1006513
12:00+23ююв4952100 0.0 10051552
15:00+24юв4850100 0.1 10042135
18:00+19юв91969100 1.6 10041779
21:00+17юв5127961 1.8 1003760
20 мая, чт
чт2000:00+13вюв2897100 0.0 1002225
03:00+15юв4109257 0.0 1001573
06:00+13ююв4991100 0.2 1002621
09:00+13ююв5882100 0.4 1002794
12:00+14ююв477889 0.6 1002995
15:00+15ююз4777100 2.5 10021301
18:00+13юз4989100 1.7 1003690
21:00+10з61292100 1.9 1006887